TimeCDT,TemperatureF,Dew PointF,Humidity,Sea Level PressureIn,VisibilityMPH,Wind Direction,Wind SpeedMPH,Gust SpeedMPH,PrecipitationIn,Events,Conditions,WindDirDegrees,DateUTC
12:24 AM,50.0,50.0,100,30.28,0.2,Calm,Calm,-,N/A,Fog,Fog,0,2013-10-29 05:24:00
12:34 AM,50.0,50.0,100,30.28,0.2,Calm,Calm,-,N/A,Fog,Fog,0,2013-10-29 05:34:00
12:47 AM,50.0,50.0,100,30.29,0.2,Calm,Calm,-,N/A,Fog,Fog,0,2013-10-29 05:47:00
12:56 AM,48.9,48.9,100,30.32,0.2,Calm,Calm,-,N/A,Fog,Fog,0,2013-10-29 05:56:00
1:15 AM,50.0,50.0,100,30.28,0.2,Calm,Calm,-,N/A,Fog,Fog,0,2013-10-29 06:15:00
1:56 AM,50.9,50.9,100,30.31,0.2,Calm,Calm,-,N/A,Fog,Fog,0,2013-10-29 06:56:00
2:16 AM,50.0,50.0,100,30.29,0.2,Calm,Calm,-,N/A,Fog,Fog,0,2013-10-29 07:16:00
2:56 AM,50.0,50.0,100,30.32,0.2,Calm,Calm,-,N/A,Fog,Fog,0,2013-10-29 07:56:00
3:44 AM,48.2,48.2,100,30.29,0.2,Calm,Calm,-,N/A,Fog,Fog,0,2013-10-29 08:44:00
3:56 AM,48.9,48.9,100,30.32,0.2,Calm,Calm,-,N/A,Fog,Fog,0,2013-10-29 08:56:00
4:20 AM,50.0,50.0,100,30.29,0.2,Calm,Calm,-,N/A,Fog,Fog,0,2013-10-29 09:20:00
4:23 AM,50.0,50.0,100,30.29,0.8,Calm,Calm,-,N/A,,Mostly Cloudy,0,2013-10-29 09:23:00
4:26 AM,50.0,50.0,100,30.29,1.5,Calm,Calm,-,N/A,,Mostly Cloudy,0,2013-10-29 09:26:00
4:30 AM,50.0,50.0,100,30.29,2.5,Calm,Calm,-,N/A,,Mostly Cloudy,0,2013-10-29 09:30:00
4:33 AM,50.0,50.0,100,30.29,1.2,Calm,Calm,-,N/A,,Mostly Cloudy,0,2013-10-29 09:33:00
4:36 AM,50.0,50.0,100,30.29,0.8,Calm,Calm,-,N/A,,Mostly Cloudy,0,2013-10-29 09:36:00
4:43 AM,48.2,48.2,100,30.29,0.2,Calm,Calm,-,N/A,Fog,Fog,0,2013-10-29 09:43:00
4:56 AM,48.9,48.9,100,30.32,0.2,Calm,Calm,-,N/A,Fog,Fog,0,2013-10-29 09:56:00
5:47 AM,50.0,50.0,100,30.31,0.5,Calm,Calm,-,N/A,Fog,Fog,0,2013-10-29 10:47:00
5:56 AM,50.0,50.0,100,30.34,0.5,Calm,Calm,-,N/A,Fog,Fog,0,2013-10-29 10:56:00
6:15 AM,50.0,50.0,100,30.31,0.2,Calm,Calm,-,N/A,Fog,Fog,0,2013-10-29 11:15:00
6:38 AM,50.0,50.0,100,30.31,0.2,Calm,Calm,-,N/A,Fog,Fog,0,2013-10-29 11:38:00
6:56 AM,50.0,50.0,100,30.33,0.1,Calm,Calm,-,N/A,Fog,Fog,0,2013-10-29 11:56:00
7:56 AM,50.0,50.0,100,30.33,0.1,Calm,Calm,-,N/A,Fog,Fog,0,2013-10-29 12:56:00
8:56 AM,52.0,52.0,100,30.36,0.2,Calm,Calm,-,N/A,,Overcast,0,2013-10-29 13:56:00
8:59 AM,51.8,51.8,100,30.33,0.2,Calm,Calm,-,N/A,Fog,Fog,0,2013-10-29 13:59:00
9:09 AM,53.6,53.6,100,30.33,0.5,Calm,Calm,-,N/A,Fog,Fog,0,2013-10-29 14:09:00
9:15 AM,53.6,53.6,100,30.32,0.8,Calm,Calm,-,N/A,,Overcast,0,2013-10-29 14:15:00
9:23 AM,53.6,53.6,100,30.33,1.0,Calm,Calm,-,N/A,,Overcast,0,2013-10-29 14:23:00
9:41 AM,53.6,53.6,100,30.32,2.0,Calm,Calm,-,N/A,,Mostly Cloudy,0,2013-10-29 14:41:00
9:56 AM,54.9,54.9,100,30.35,2.0,ENE,3.5,-,N/A,,Mostly Cloudy,60,2013-10-29 14:56:00
10:03 AM,55.4,55.4,100,30.32,3.0,Calm,Calm,-,N/A,,Mostly Cloudy,0,2013-10-29 15:03:00
10:19 AM,55.4,55.4,100,30.32,6.0,Calm,Calm,-,N/A,,Scattered Clouds,0,2013-10-29 15:19:00
10:56 AM,57.9,57.9,100,30.35,10.0,Calm,Calm,-,N/A,,Scattered Clouds,0,2013-10-29 15:56:00
11:56 AM,64.9,50.0,58,30.31,10.0,Calm,Calm,-,N/A,,Clear,0,2013-10-29 16:56:00
12:56 PM,70.0,54.0,57,30.28,10.0,Calm,Calm,-,N/A,,Clear,0,2013-10-29 17:56:00
1:56 PM,72.0,55.9,57,30.26,10.0,ESE,4.6,-,N/A,,Scattered Clouds,120,2013-10-29 18:56:00
2:56 PM,72.0,56.8,59,30.24,10.0,Variable,3.5,-,N/A,,Mostly Cloudy,0,2013-10-29 19:56:00
3:56 PM,70.9,57.9,63,30.23,10.0,ESE,5.8,-,N/A,,Clear,120,2013-10-29 20:56:00
4:56 PM,70.9,59.0,66,30.21,10.0,ESE,5.8,-,N/A,,Partly Cloudy,120,2013-10-29 21:56:00
5:56 PM,68.0,59.0,73,30.22,10.0,Calm,Calm,-,N/A,,Scattered Clouds,0,2013-10-29 22:56:00
6:56 PM,64.9,59.9,84,30.22,10.0,Calm,Calm,-,N/A,,Scattered Clouds,0,2013-10-29 23:56:00
7:56 PM,63.9,59.9,87,30.23,10.0,Calm,Calm,-,N/A,,Scattered Clouds,0,2013-10-30 00:56:00
8:56 PM,64.9,59.9,84,30.22,10.0,Calm,Calm,-,N/A,,Partly Cloudy,0,2013-10-30 01:56:00
9:56 PM,63.0,59.9,90,30.23,10.0,South,3.5,-,N/A,,Clear,180,2013-10-30 02:56:00
10:56 PM,64.9,61.0,87,30.22,10.0,South,3.5,-,N/A,,Clear,190,2013-10-30 03:56:00
11:56 PM,61.0,61.0,100,30.22,10.0,Calm,Calm,-,N/A,,Clear,0,2013-10-30 04:56:00